K4NSC-13 Weather Reports


Display with metric or nautical units.
time (UTC)temp
F
wind
direction
speed
MPH
gust
MPH
rain 1hr
in
rain 24hr
in
rain mn
in
humidity
%
barometer
mb
20260506033530 67 312 2.0 5.0 0.00 0.00 0.00 76 1015.6
20260506032530 67 181 1.0 2.0 0.00 0.00 0.00 75 1015.5
20260506031551 67 274 2.0 4.0 0.00 0.00 0.00 75 1015.3
20260506030536 68 312 3.0 7.0 0.00 0.00 0.00 74 1015.3
20260506025532 68 272 2.0 5.0 0.00 0.00 0.00 73 1015.2
20260506024523 68 283 3.0 9.0 0.00 0.00 0.00 71 1015.2
20260506023531 69 335 1.0 3.0 0.00 0.00 0.00 70 1015.2
20260506022522 69 332 4.0 10.0 0.00 0.00 0.00 68 1015.4
20260506021531 70 296 2.0 4.0 0.00 0.00 0.00 67 1015.4
20260506020542 70 319 2.0 6.0 0.00 0.00 0.00 66 1015.2
20260506015522 71 316 3.0 7.0 0.00 0.00 0.00 65 1015.0
20260506014523 71 328 3.0 9.0 0.00 0.00 0.00 65 1014.9
20260506013522 72 299 2.0 6.0 0.00 0.00 0.00 64 1014.7
20260506012531 72 337 3.0 8.0 0.00 0.00 0.00 63 1014.5
20260506011523 73 315 3.0 6.0 0.00 0.00 0.00 63 1014.3
20260506010523 73 344 3.0 8.0 0.00 0.00 0.00 62 1014.2
20260506005520 74 338 3.0 10.0 0.00 0.00 0.00 61 1014.0
20260506004524 74 340 3.0 5.0 0.00 0.00 0.00 59 1013.5
20260506003524 75 313 3.0 6.0 0.00 0.00 0.00 58 1013.4
20260506002544 74 338 3.0 5.0 0.00 0.00 0.00 55 1013.3
20260506001519 74 324 3.0 5.0 0.00 0.00 0.00 53 1013.4
20260506000541 76 303 1.0 3.0 0.00 0.00 0.00 50 1013.3
20260505235517 78 308 2.0 3.0 0.00 0.00 0.00 47 1013.3
20260505234533 79 297 1.0 2.0 0.00 0.00 0.00 45 1013.2
20260505233553 80 33 1.0 3.0 0.00 0.00 0.00 44 1013.2
20260505232533 80 107 2.0 4.0 0.00 0.00 0.00 43 1013.2
20260505231519 80 170 1.0 3.0 0.00 0.00 0.00 42 1013.2
20260505230519 81 59 2.0 4.0 0.00 0.00 0.00 42 1013.3
20260505225518 81 176 2.0 4.0 0.00 0.00 0.00 42 1013.4
20260505224519 80 164 3.0 5.0 0.00 0.00 0.00 43 1013.3
20260505223519 81 173 2.0 7.0 0.00 0.00 0.00 42 1013.1
20260505222519 81 350 3.0 8.0 0.00 0.00 0.00 42 1013.2
20260505221601 82 11 1.0 2.0 0.00 0.00 0.00 41 1013.2
20260505220520 82 308 3.0 7.0 0.00 0.00 0.00 41 1013.2
20260505215519 82 158 3.0 8.0 0.00 0.00 0.00 41 1013.2
20260505214520 82 138 2.0 4.0 0.00 0.00 0.00 42 1013.3
20260505213521 82 185 3.0 11.0 0.00 0.00 0.00 43 1013.4
20260505212628 82 305 2.0 5.0 0.00 0.00 0.00 42 1013.5
20260505211520 82 164 3.0 5.0 0.00 0.00 0.00 43 1013.5
20260505210520 83 338 4.0 8.0 0.00 0.00 0.00 42 1013.6
20260505205520 83 160 3.0 5.0 0.00 0.00 0.00 42 1013.6
20260505204520 82 272 2.0 4.0 0.00 0.00 0.00 42 1013.6
20260505203521 82 256 3.0 7.0 0.00 0.00 0.00 43 1013.7
20260505202521 81 300 3.0 9.0 0.00 0.00 0.00 43 1014.0
20260505201524 81 146 3.0 6.0 0.00 0.00 0.00 43 1014.0
20260505200521 82 142 4.0 8.0 0.00 0.00 0.00 42 1014.1
20260505195521 82 158 3.0 6.0 0.00 0.00 0.00 43 1014.2
20260505194529 82 152 3.0 7.0 0.00 0.00 0.00 42 1014.3
20260505193521 82 260 3.0 9.0 0.00 0.00 0.00 43 1014.5
20260505192521 82 172 3.0 6.0 0.00 0.00 0.00 43 1014.6
20260505191521 82 145 4.0 10.0 0.00 0.00 0.00 42 1014.7
20260505190519 82 307 4.0 13.0 0.00 0.00 0.00 43 1015.1
20260505185522 82 172 3.0 8.0 0.00 0.00 0.00 43 1015.3
20260505184522 82 161 3.0 7.0 0.00 0.00 0.00 43 1015.7
20260505183525 81 154 4.0 8.0 0.00 0.00 0.00 45 1015.8
20260505182520 81 142 6.0 12.0 0.00 0.00 0.00 44 1015.9
20260505181522 82 160 5.0 9.0 0.00 0.00 0.00 43 1015.8
20260505180522 81 197 2.0 5.0 0.00 0.00 0.00 44 1015.8
20260505175522 80 163 3.0 7.0 0.00 0.00 0.00 45 1015.6
20260505174522 80 169 4.0 7.0 0.00 0.00 0.00 45 1015.7
20260505173522 80 144 3.0 11.0 0.00 0.00 0.00 46 1015.7
20260505172543 79 320 3.0 9.0 0.00 0.00 0.00 47 1015.9
20260505171523 79 349 3.0 11.0 0.00 0.00 0.00 49 1016.0
20260505170524 79 157 4.0 7.0 0.00 0.00 0.00 49 1016.3
20260505165523 79 148 4.0 9.0 0.00 0.00 0.00 49 1016.5
20260505164523 78 291 2.0 5.0 0.00 0.00 0.00 50 1016.6
20260505163524 78 158 3.0 5.0 0.00 0.00 0.00 47 1016.7
20260505162518 77 281 3.0 7.0 0.00 0.00 0.00 54 1016.8
20260505161538 76 149 4.0 8.0 0.00 0.00 0.00 54 1017.0
20260505160518 77 149 3.0 6.0 0.00 0.00 0.00 55 1017.1
20260505152518 75 140 4.0 7.0 0.00 0.00 0.00 62 1017.3
20260505151519 75 152 3.0 6.0 0.00 0.00 0.00 62 1017.3
20260505150519 74 142 4.0 8.0 0.00 0.00 0.00 64 1017.3
20260505140606 71 163 3.0 6.0 0.00 0.00 0.00 68 1017.3
20260505124526 67 258 0.0 2.0 0.00 0.00 0.00 76 1017.3
20260505123527 66 0.0 0.0 0.00 0.00 0.00 78 1017.3
20260505122528 63 21 0.0 1.0 0.00 0.00 0.00 83 1017.3
20260505121528 62 179 1.0 2.0 0.00 0.00 0.00 82 1017.2
20260505120527 60 214 0.0 0.0 0.00 0.00 0.00 84 1017.3
20260505115527 57 0.0 0.0 0.00 0.00 0.00 89 1017.2
20260505114608 53 0.0 0.0 0.00 0.00 0.00 95 1017.3
20260505113528 51 7 0.0 1.0 0.00 0.00 0.00 97 1017.3
20260505112549 51 3 0.0 1.0 0.00 0.00 0.00 97 1017.2
20260505111548 50 328 0.0 1.0 0.00 0.00 0.00 97 1017.2
20260505110528 50 0.0 0.0 0.00 0.00 0.00 97 1017.2
20260505101529 50 336 0.0 1.0 0.00 0.00 0.00 96 1016.7
20260505100529 51 0.0 0.0 0.00 0.00 0.00 95 1016.5
20260505095530 51 0.0 0.0 0.00 0.00 0.00 95 1016.5
20260505094529 51 0.0 0.0 0.00 0.00 0.00 94 1016.5
20260505093545 52 0.0 0.0 0.00 0.00 0.00 94 1016.4
20260505092529 52 0.0 0.0 0.00 0.00 0.00 93 1016.4
20260505091530 52 358 0.0 1.0 0.00 0.00 0.00 93 1016.4
20260505090530 52 3 0.0 0.0 0.00 0.00 0.00 92 1016.3
20260505085530 53 0.0 0.0 0.00 0.00 0.00 91 1016.3
20260505084530 53 0.0 0.0 0.00 0.00 0.00 90 1016.2
20260505083531 53 339 0.0 1.0 0.00 0.00 0.00 91 1016.2
20260505082556 53 341 0.0 1.0 0.00 0.00 0.00 91 1016.2
20260505081530 53 0.0 0.0 0.00 0.00 0.00 90 1016.1
20260505080531 53 3 0.0 1.0 0.00 0.00 0.00 90 1016.0
20260505075532 53 0.0 0.0 0.00 0.00 0.00 89 1015.9
20260505074552 54 353 0.0 1.0 0.00 0.00 0.00 89 1015.8
20260505073551 54 0.0 0.0 0.00 0.00 0.00 88 1015.8
20260505072531 54 6 0.0 1.0 0.00 0.00 0.00 87 1015.9
20260505071534 55 341 0.0 1.0 0.00 0.00 0.00 87 1015.9
20260505070552 55 347 0.0 0.0 0.00 0.00 0.00 86 1015.9
20260505065532 56 0.0 0.0 0.00 0.00 0.00 84 1015.8
20260505064534 56 239 0.0 0.0 0.00 0.00 0.00 84 1015.9
20260505063532 57 358 0.0 1.0 0.00 0.00 0.00 83 1016.0
20260505062517 57 0.0 0.0 0.00 0.00 0.00 82 1016.1
20260505061517 58 0.0 0.0 0.00 0.00 0.00 81 1016.1
20260505060538 60 96 0.0 1.0 0.00 0.00 0.00 79 1016.1
20260505055518 61 0.0 0.0 0.00 0.00 0.00 77 1016.1
20260505054555 62 184 2.0 5.0 0.00 0.00 0.00 73 1016.1
20260505053520 62 182 1.0 2.0 0.00 0.00 0.00 72 1016.1
20260505052539 63 180 2.0 4.0 0.00 0.00 0.00 71 1016.0
20260505051539 63 170 2.0 3.0 0.00 0.00 0.00 70 1016.2
20260505050519 63 187 2.0 4.0 0.00 0.00 0.00 69 1016.2
20260505041521 64 187 2.0 4.0 0.00 0.00 0.00 68 1016.3
20260505040519 63 191 2.0 3.0 0.00 0.00 0.00 68 1016.3
20260505035522 64 197 1.0 3.0 0.00 0.00 0.00 68 1016.3
20260505034520 64 214 1.0 3.0 0.00 0.00 0.00 67 1016.4